Simultaneous Nadir Overpasses (SNOs) Predictions

Prediction of SNOs between GOES-16 and AQUA Satellite Orbit:

Table of predicted SNOs for the next 14.0 days since TLE Epoch: 12/31/2022
Index Date Time (GOES-16) GOES-16 Lat,Lon AQUA Lat,Lon Distance(km) Time Diff (sec)
1 12/31/2022 06:45:28 -0.04, -75.19 0.10, -75.84 75.00 80
2 01/02/2023 06:35:06 -0.04, -75.19 -0.58, -72.67 287.29 80
3 01/02/2023 18:53:37 0.04, -75.20 -0.51, -77.80 296.08 80
4 01/04/2023 18:43:14 0.03, -75.21 0.15, -74.62 67.04 80
5 01/06/2023 18:30:11 0.02, -75.23 0.84, -71.44 430.80 80
6 01/07/2023 06:51:13 -0.02, -75.23 0.26, -76.54 148.27 80
7 01/09/2023 06:35:29 -0.01, -75.26 -0.40, -73.35 216.39 80
8 01/09/2023 18:56:39 0.02, -75.26 -0.64, -78.49 366.49 80
9 01/11/2023 18:43:34 0.02, -75.29 0.00, -75.30 1.80 80
10 01/13/2023 18:33:10 0.02, -75.33 0.68, -72.11 365.96 80
